This demonstration page uses our WeatherBlox Daily Observations layout. Learn more.

Left ArrowRight Arrow

Hourly Observations for January 6, 2022

Temp ( °F °C ) Dew Point ( °F °C ) Humidity (%) Winds ( mph kmh ) Pressure ( in mb ) Visibility ( mi km ) Precip ( " mm )
12:53 am 00:53 Clear -19 -28.3 -26 -32.2 69 69 Calm 30.60 1036 10 16 0.00 0.00
1:53 am 01:53 Clear -22 -30 -27 -32.8 76 76 Calm 30.59 1036 10 16 0.00 0.00
2:53 am 02:53 Clear -21 -29.4 -27 -32.8 72 72 E 7 11 30.55 1034 10 16 0.00 0.00
3:53 am 03:53 Clear -19 -28.3 -25 -31.7 73 73 E 9 15 30.51 1033 10 16 0.00 0.00
4:53 am 04:53 Clear -19 -28.3 -25 -31.7 73 73 ENE 10 17 30.47 1032 10 16 0.00 0.00
5:53 am 05:53 Clear -19 -28.3 -25 -31.7 73 73 ENE 12 19 30.43 1030 10 16 0.00 0.00
6:53 am 06:53 Clear -19 -28.3 -24 -31.1 77 77 ENE 15 24 30.37 1028 10 16 0.00 0.00
7:53 am 07:53 Clear -19 -28.3 -23 -30.6 81 81 ENE 15 24 30.34 1028 10 16 0.00 0.00
8:53 am 08:53 Mostly Sunny -16 -26.7 -21 -29.4 78 78 E 13 20 30.32 1027 10 16 0.00 0.00
9:53 am 09:53 Cloudy -15 -26.1 -20 -28.9 77 77 E 9 15 30.29 1026 10 16 0.00 0.00
10:53 am 10:53 Cloudy -14 -25.6 -19 -28.3 78 78 ENE 14 22 30.24 1024 10 16 0.00 0.00
11:53 am 11:53 Cloudy -12 -24.4 -17 -27.2 78 78 ENE 6 9 30.21 1023 10 16 0.00 0.00
12:43 pm 12:43 Cloudy with Haze -9 -22.8 -15 -26.1 75 75 ENE 5 7 30.30 1026 2 3 0.00 0.00
12:50 pm 12:50 Cloudy with Haze -9 -23 -15 -26 77 77 NE 5 7 30.30 1026 2 3 0.00 0.00
12:53 pm 12:53 Cloudy with Haze -9 -22.8 -15 -26.1 75 75 ENE 5 7 30.16 1022 2 2 0.00 0.00
1:01 pm 13:01 Cloudy with Haze -9 -22.8 -15 -26.1 75 75 ENE 5 7 30.29 1026 1 2 0.00 0.00
1:35 pm 13:35 Cloudy with Haze -9 -22.8 -15 -26.1 75 75 E 6 9 30.24 1024 2 3 0.00 0.00
1:38 pm 13:38 Cloudy with Haze -9 -22.8 -15 -26.1 75 75 ENE 7 11 30.24 1024 2 3 0.00 0.00
1:53 pm 13:53 Cloudy with Haze -8 -22.2 -15 -26.1 71 71 ENE 5 7 30.13 1020 3 4 0.00 0.00
2:27 pm 14:27 Cloudy with Haze -8 -22.2 -14 -25.6 74 74 ENE 6 9 30.23 1024 2 3 0.00 0.00
2:41 pm 14:41 Cloudy with Haze -8 -22.2 -14 -25.6 74 74 E 6 9 30.22 1023 2 2 0.00 0.00
2:53 pm 14:53 Cloudy with Haze -7 -21.7 -14 -25.6 71 71 E 6 9 30.10 1019 1 2 0.00 0.00
3:20 pm 15:20 Cloudy with Haze -8 -22 -13 -25 77 77 ENE 5 7 30.20 1023 2 2 0.00 0.00
3:28 pm 15:28 Cloudy with Haze -8 -22 -11 -24 84 84 ENE 6 9 30.19 1022 1 2 0.00 0.00
3:53 pm 15:53 Cloudy with Haze -6 -21.1 -11 -23.9 78 78 NE 6 9 30.06 1018 1 2 0.00 0.00
4:08 pm 16:08 Cloudy with Haze -6 -21.1 -11 -23.9 78 78 ENE 7 11 30.15 1021 2 3 0.00 0.00
4:12 pm 16:12 Cloudy with Haze -6 -21 -11 -24 77 77 ENE 7 11 30.15 1021 2 3 0.00 0.00
4:31 pm 16:31 Cloudy with Haze -5 -20.6 -10 -23.3 79 79 ENE 6 9 30.14 1021 4 6 0.01 0.25
4:53 pm 16:53 Cloudy with Haze -5 -20.6 -10 -23.3 79 79 ENE 7 11 30.03 1017 5 8 0.01 0.25
5:06 pm 17:06 Cloudy with Light Snow -5 -20.6 -10 -23.3 79 79 ENE 8 13 30.13 1020 2 3 0.00 0.00
5:13 pm 17:13 Cloudy with Light Snow -5 -20.6 -10 -23.3 79 79 ENE 8 13 30.13 1020 2 2 0.00 0.00
5:53 pm 17:53 Cloudy with Light Snow -5 -20.6 -10 -23.3 79 79 NE 7 11 30.00 1016 2 2 0.01 0.25
6:50 pm 18:50 Cloudy with Light Snow -6 -21 -9 -23 84 84 NE 5 7 30.08 1019 1 2 0.02 0.51
6:53 pm 18:53 Cloudy with Light Snow -5 -20.6 -9 -22.8 83 83 NE 3 6 29.96 1015 1 2 0.02 0.51
7:10 pm 19:10 Cloudy with Light Snow -4 -20 -9 -22.8 79 79 NE 3 6 30.05 1018 2 2 0.01 0.25
7:22 pm 19:22 Cloudy with Light Snow -4 -20 -9 -23 77 77 NE 5 7 30.04 1017 3 5 0.00 0.00
7:53 pm 19:53 Cloudy with Light Snow -3 -19.4 -9 -22.8 75 75 Calm 29.91 1013 10 16 0.01 0.25
8:53 pm 20:53 Partly Cloudy -3 -19.4 -9 -22.8 75 75 Calm 29.87 1012 10 16 0.00 0.00

Powered by AerisWeather